User: anonymous   Login
Location: Unspecified
(0.0000°N, 0.0000°E)
Time: 13:17:40
(UTC+00:00)
Language:

NNS O-25 - Orbit

View from above orbital plane
View from above orbital plane
View from above satellite
View from above satellite

Ground track
Ground track

The orbit data is extracted from the following two-line orbital elements,

1 19419U 88074A   17086.82622694 +.00000035 +00000-0 +45487-4 0  9992
2 19419 089.9888 019.0887 0095455 321.2824 090.1879 13.42161099399549
Epoch (UTC): 27 March 2017 19:49:46
Eccentricity: 0.0095455
inclination: 89.9888°
perigee height: 1030 km
apogee height: 1172 km
right ascension of ascending node: 19.0887°
argument of perigee: 321.2824°
revolutions per day: 13.42161099
mean anomaly at epoch: 90.1879°
orbit number at epoch: 39954

The dashed part of the orbit path shows where the satellite is in the earth's shadow,  

DLR